Location: Killam
(52.7910°N, 111.8608°W)
Time: 04:52:12
(UTC+00:00)

Gurwin Techsat 1B - Pass Details

Date: 19 March 2026
Orbit: 809 x 812 km, 99.0° (Epoch: 15 April)

Event Time Altitude Azimuth Distance (km) Brightness Sun altitude
Rises 12:33:50 0° 17° (NNE) 3,343 12.2 -9.6°
Reaches altitude 10° 12:36:13 10° 21° (NNE) 2,407 11.5 -9.2°
Maximum altitude 12:41:30 63° 103° (ESE) 901 9.2 -8.4°
Drops below altitude 10° 12:46:44 10° 185° (S) 2,389 10.9 -7.6°
Sets 12:49:05 0° 188° (S) 3,316 11.6 -7.3°
